Погода в Молодёжном

Россия / Республика Крым     45°00′20″N   34°03′14″E
темп.,
°C
ветер,
м/с
пор.,
м/с
влажн.,
%
обл.,
%
осадки,
мм/ч
давл.,
гПа
погр.,
м
19 мая, ср
ср1900:00+13ююз71475100 0.0 1006614
03:00+12ююз8158228 0.4 1006719
06:00+12юз8148452 0.7 1006818
09:00+14зюз9117423 1.0 10081108
12:00+14зюз111477100 0.7 10091242
15:00+14зюз10158053 1.1 10111239
18:00+15зюз8127562 0.2 10121175
21:00+12ююз611945 0.3 1013303
20 мая, чт
чт2000:00+10ю368442 0.0 101396
03:00+11ю337571 0.0 101235
06:00+11юв227024 0.0 101221
09:00+18вюв34517 0.0 1011482
12:00+23всв23340 0.0 10091531
15:00+25юв34313 0.0 10081865
18:00+22юв3550100 0.0 1007289
21:00+13ююз2378100 0.0 100935
21 мая, пт
пт2100:00+13юв1178100 0.0 100911
03:00+13всв2279100 0.0 100918
06:00+14всв1272100 0.0 100828
09:00+19всв236099 0.0 1008329
12:00+22ссв325097 0.0 1008641
15:00+25ссв444613 0.0 10071033
18:00+24ссв575419 0.0 1006743
21:00+18всв2376100 0.0 100957
22 мая, сб
сб2200:00+16всв348089 0.4 100962
03:00+14всв228271 0.4 100818
06:00+14ссв11910 0.1 101018
09:00+19ссв5777100 0.1 1010621
12:00+23ссв6859100 0.0 10091122
15:00+25св7854100 0.0 10091419
18:00+23св6964100 0.0 10081113
21:00+18св2282100 0.0 100936
23 мая, вс
вс2300:00+17в2391100 0.0 100947
03:00+16вюв229269 0.0 100814
06:00+16юз229098 0.0 100960
09:00+21зюз3372100 0.0 1009521
12:00+23зсз336694 0.0 1008975
15:00+25сз3464100 2.6 10091024
18:00+24зсз346689 0.8 1008438
21:00+18ююз2285100 0.8 101123